Flag for U.S.A. Weather past 2 weeks in Frankfort, Kentucky, U.S.A.

Now
57 °F

Clear.


Feels Like: 56 °F
Forecast: 43 / 75 °F
Wind: 7 mph from North

Location: Capital City Airport


UV Index: 5 (Moderate)

Visibility: 10 mi


Pressure: 30.21 "Hg

Humidity: 42%

Dew point: 34 °F

Location of FrankfortLocation

Historic Weather in Frankfort

°F

Frankfort temperature yesterday

Maximum temperature yesterday: 72 °F (at 3:53 PM)
Minimum temperature yesterday: 45 °F (at 2:53 AM)
Average temperature yesterday: 60 °F

Past Weeks' High & Low Weather Summary

 TemperatureHumidityPressure
High81 °F (Apr 13, 2:53 PM)100% (Apr 7, 9:01 AM)30.40 "Hg (Apr 7, 9:01 AM)
Low24 °F (Apr 16, 5:53 AM)22% (Apr 13, 4:53 PM)29.35 "Hg (Apr 7, 5:53 PM)
Average54 °F60%30.02 "Hg
* Reported Apr 4 10:53 PM — Apr 19 10:53 PM, Frankfort, Weather by CustomWeather, © 2014

Note: Actual official high and low records may vary slightly from our data, if they occured in-between our weather recording intervals... More about our weather records

Advertising

Historic Weather Conditions — Data for Previous 24 hours

 ConditionsComfort  
Time TempWeatherWind HumidityBarometerVisibility
10:53 PM
Apr 19
59 °FClear.6 mph38%30.20 "Hg10 mi
9:53 PM62 °FClear.6 mph32%30.20 "Hg10 mi
8:53 PM64 °FSunny.6 mph30%30.19 "Hg10 mi
7:53 PM68 °FSunny.7 mph26%30.19 "Hg10 mi
6:53 PM70 °FSunny.8 mph25%30.18 "Hg10 mi
5:53 PM72 °FSunny.15 mph23%30.18 "Hg10 mi
4:53 PM72 °FSunny.10 mph26%30.18 "Hg10 mi
3:53 PM72 °FSunny.14 mph26%30.19 "Hg10 mi
2:53 PM71 °FSunny.12 mph27%30.21 "Hg10 mi
1:53 PM71 °FSunny.10 mph28%30.22 "Hg10 mi
12:53 PM69 °FSunny.10 mph36%30.25 "Hg10 mi
11:53 AM66 °FSunny.13 mph43%30.27 "Hg10 mi
10:53 AM64 °FSunny.8 mph47%30.27 "Hg10 mi
9:53 AM59 °FSunny.8 mph54%30.26 "Hg10 mi
8:53 AM54 °FSunny.7 mph57%30.26 "Hg10 mi
7:53 AM50 °FClear.6 mph66%30.24 "Hg10 mi
6:53 AM48 °FClear.6 mph68%30.22 "Hg10 mi
5:53 AM51 °FClear.3 mph63%30.21 "Hg10 mi
4:53 AM52 °FClear.6 mph61%30.20 "Hg10 mi
3:53 AM51 °FClear.6 mph61%30.19 "Hg10 mi
2:53 AM45 °FClear.5 mph82%30.19 "Hg10 mi
1:53 AM46 °FClear.No wind79%30.20 "Hg10 mi
12:53 AM47 °FClear.No wind80%30.20 "Hg10 mi
Weather by CustomWeather, © 2014

See weather overview